User: anonymous   Login
Location: Alma
(38.7220°N, 88.9090°W)
Time: 14:37:01
(UTC-06:00)
Language:

Transit 2A - Orbit

View from above orbital plane
View from above orbital plane
View from above satellite
View from above satellite

Ground track
Ground track

The orbit data is extracted from the following two-line orbital elements,

1    45U 60007A   19315.32723618 -.00000041  00000-0  16496-4 0  9999
2    45  66.6949 238.3404 0248854 115.9215 246.7761 14.33654882 91298
Epoch (UTC): 11 November 2019 07:51:13
Eccentricity: 0.0248854
inclination: 66.6949°
perigee height: 601 km
apogee height: 957 km
right ascension of ascending node: 238.3404°
argument of perigee: 115.9215°
revolutions per day: 14.33654882
mean anomaly at epoch: 246.7761°
orbit number at epoch: 9129

The dashed part of the orbit path shows where the satellite is in the earth's shadow,  

DLR